Regional Weather Roundup
Issued by NWS

Home | Current Version | Previous Version | Graphics & Text | Print | Product List | Glossary On
Versions: 1 2 3 4 5 6 7 8 9 10 11 12 13 14 15 16 17 18 19 20 21 22 23 24 25 26 27 28 29 30 31 32 33 34 35 36 37 38 39 40 41 42 43 44 45 46 47 48 49 50
903
ASUS43 KMKX 250000
RWRWI

WISCONSIN REGIONAL WEATHER ROUNDUP
NATIONAL WEATHER SERVICE MILWAUKEE/SULLIVAN WI
600 PM CST FRI FEB 24 2017

NOTE: "FAIR" INDICATES FEW OR NO CLOUDS BELOW 12,000 FEET WITH NO
SIGNIFICANT WEATHER AND/OR OBSTRUCTIONS TO VISIBILITY.

WIZ001-002-006>008-014>016-023>028-250100-
NORTHWEST WISCONSIN

CITY           SKY/WX    TMP DP  RH WIND       PRES   REMARKS
SUPERIOR ARPT  MOCLDY    22   9  57 N13G18    29.90S WCI  10
ASHLAND        CLOUDY    19   9  65 N13       29.87S WCI   6
6HR MIN TEMP:  18; 6HR MAX TEMP:  20; 6HR PCP: TRACE;

HAYWARD        CLOUDY    19   8  62 N12G22    29.82S WCI   7
6HR MIN TEMP:  19; 6HR MAX TEMP:  22; 6HR PCP: TRACE;

SIREN          CLOUDY    22  10  60 N12G18    29.85S WCI  11
CUMBERLAND     CLOUDY    19  10  68 N16       29.80R WCI   5
RICE LAKE      LGT SNOW  20  13  73 N13G20    29.81S WCI   7
CHETEK         LGT SNOW  20  15  81 N12       29.79S WCI   8
LADYSMITH      LGT SNOW  20  15  81 N17G24    29.76S WCI   6
EAU CLAIRE     NOT AVBL
MENOMONIE      LGT SNOW  22  18  83 NW18G25   29.78R WCI   8
NEW RICHMOND   CLOUDY    23  12  63 N20       29.82R WCI   8
OSCEOLA        CLOUDY    24  12  59 N14G21    29.87R WCI  12
$$

WIZ003>005-009-010-017-018-250100-
NORTH CENTRAL WISCONSIN

CITY           SKY/WX    TMP DP  RH WIND       PRES   REMARKS
MANITOWISH WTR LGT SNOW  17  14  87 N9G17     29.70S WCI   6
ARBOR VITAE    LGT SNOW  19  15  83 N12G18      N/A  WCI   7
WOODRUFF       LGT SNOW  19  15  83 N12G18      N/A  WCI   7
RHINELANDER    LGT SNOW  19  16  88 VRB7      29.65F VSB 1   WCI  10
6HR MIN TEMP:  19; 6HR MAX TEMP:  23; 6HR PCP:  0.02;

EAGLE RIVER    LGT SNOW  17  13  82 N12       29.67S WCI   4
LAND O LAKES   LGT SNOW  18  14  84 N13G23    29.69F WCI   4
PHILLIPS       LGT SNOW  18  14  85 N12G22    29.70S WCI   6
TOMAHAWK       LGT SNOW  19  14  81 N9G16     29.67S WCI   8
MEDFORD        LGT SNOW  19  15  82 N12G22    29.66R VSB 1   WCI   7
MERRILL        NOT AVBL
$$

WIZ029-030-035-036-043>047-250100-
CENTRAL WISCONSIN

CITY           SKY/WX    TMP DP  RH WIND       PRES   REMARKS
WAUSAU         CLOUDY    21  16  81 N14G21    29.64R WCI   8
6HR MIN TEMP:  21; 6HR MAX TEMP:  25; 6HR PCP: TRACE;

MOSINEE        CLOUDY    21  19  93 N15G24    29.65R WCI   8
MARSHFIELD     LGT SNOW  22  17  81 N15G22    29.64R WCI   9
6HR MIN TEMP:  22; 6HR MAX TEMP:  26; 6HR PCP: TRACE;

STEVENS POINT  CLOUDY    23  21  93 N9        29.64R WCI  13
WAUPACA        CLOUDY    28  25  89 N13       29.61F FOG     WCI  17
WAUTOMA        LGT SNOW  26  24  92 N9        29.62R FOG     WCI  17
6HR MIN TEMP:  26; 6HR MAX TEMP:  28; 6HR PCP: TRACE;

WISC RAPIDS    MIX PCPN  25  21  85 N15G25    29.65S WCI  13
6HR MIN TEMP:  25; 6HR MAX TEMP:  27; 6HR PCP: TRACE;

CAMP DOUGLAS   MIX PCPN  27  23  86 NW7       29.64F WCI  19
$$

WIZ011>013-019>022-031-037>040-048>050-250100-
NORTHEAST WISCONSIN

CITY           SKY/WX    TMP DP  RH WIND       PRES   REMARKS
ANTIGO         CLOUDY    19  16  86 N17       29.62S FOG     WCI   4
SHAWANO        MIX PCPN  28  25  89 N13G20    29.61F WCI  17
6HR MIN TEMP:  28; 6HR MAX TEMP:  29;

OCONTO         CLOUDY    25  23  91 N13G21    29.60S WCI  13
STURGEON BAY   MIX PCPN  26  25  96 MISG      29.58R FOG
6HR MIN TEMP:  26; 6HR MAX TEMP:  29; 6HR PCP: TRACE;

GREEN BAY      CLOUDY    27  26  96 N18       29.58S FOG     WCI  14
6HR MIN TEMP:  27; 6HR MAX TEMP:  29; 6HR PCP: TRACE;

MANITOWOC      NOT AVBL
APPLETON       CLOUDY    25  25 100 N16G24    29.56S FOG     WCI  12
CLINTONVILLE   MIX PCPN  27  25  93 N12       29.61S WCI  16
OSHKOSH        MIX PCPN  26  24  92 N20       29.58R FOG     WCI  12
6HR MIN TEMP:  26; 6HR MAX TEMP:  28; 6HR PCP: TRACE;

$$

WIZ032>034-041-042-053>061-250100-
SOUTHWEST WISCONSIN

CITY           SKY/WX    TMP DP  RH WIND       PRES   REMARKS
LA CROSSE      LGT SNOW  27  22  81 N13       29.71R WCI  16
6HR MIN TEMP:  27; 6HR MAX TEMP:  32; 6HR PCP:  0.04;

SPARTA         FLURRIES  26  23  91 N7        29.68S WCI  18
VIROQUA        CLOUDY    26  24  96 N13       29.63S WCI  14
BOSCOBEL       CLOUDY    29  25  85 N8        29.68R WCI  21
6HR MIN TEMP:  29; 6HR MAX TEMP:  32; 6HR PCP: TRACE;

PRAIRIE DU CHI CLOUDY    29  25  84 N14G20    29.68R WCI  18
PLATTEVILLE    CLOUDY    29  29  98 N7        29.62R WCI  22
$$

WIZ056-057-062-063-064-067-068-250100-
SOUTH CENTRAL WISCONSIN

CITY           SKY/WX    TMP DP  RH WIND       PRES   REMARKS
REEDSBURG      CLOUDY    26  26  99 N6        29.63R FOG     WCI  19
6HR MIN TEMP:  26; 6HR MAX TEMP:  29;

BARABOO/DELLS  CLOUDY    26  25  95 N6        29.61R FOG     WCI  20
LONE ROCK      NOT AVBL
MINERAL POINT  CLOUDY    30  30 100 N3        29.61R FOG
MADISON        FRZ DRZL  27  25  92 N12       29.59R FOG     WCI  17
6HR MIN TEMP:  27; 6HR MAX TEMP:  31; 6HR PCP: TRACE;

MIDDLETON      CLOUDY    29  29 100 N6        29.60R WCI  23
WATERTOWN      CLOUDY    28  28 100 N12       29.55R FOG     WCI  18
MONROE         CLOUDY    30  28  93 N14       29.58R FOG     WCI  20
JANESVILLE     CLOUDY    30  30 100 N12G17    29.57R FOG     WCI  21
$$

WIZ051-052-058>065-066-070>072-250100-
SOUTHEAST WISCONSIN

CITY           SKY/WX    TMP DP  RH WIND       PRES   REMARKS
MILWAUKEE      DRIZZLE   34  31  88 NW14      29.52R FOG     WCI  25
6HR MIN TEMP:  34; 6HR MAX TEMP:  36; 6HR PCP:  0.01;

WAUKESHA       CLOUDY    28  28 100 NW12      29.55R FOG     WCI  18
MILWAUKEE/TIMM CLOUDY    30  28  93 NW10      29.54R FOG     WCI  21
RACINE         CLOUDY    35  32  88 N12       29.54R FOG     WCI  27
6HR MIN TEMP:  35; 6HR MAX TEMP:  36; 6HR PCP: TRACE;

KENOSHA        CLOUDY    35  33  92 NW7       29.52R FOG     WCI  29
6HR MIN TEMP:  35; 6HR MAX TEMP:  37; 6HR PCP: TRACE;

FOND DU LAC    LGT SNOW  28  24  85 N16       29.57R FOG     WCI  16
6HR MIN TEMP:  28; 6HR MAX TEMP:  30; 6HR PCP: TRACE;

SHEBOYGAN      CLOUDY    29  26  89 N16G25    29.53R FOG     WCI  17
6HR MIN TEMP:  29; 6HR MAX TEMP:  32; 6HR PCP: TRACE;

WEST BEND      CLOUDY    30  30 100 N3        29.53R FOG
JUNEAU         MIX PCPN  28  26  94 N8        29.57R WCI  19
$$

LSZ147-162-250100-
LAKE SUPERIOR

STATION/POSITION TIME  TEMP    WIND        PRES    WAVE
                       AIR SEA DIR/SP/G            HT/PER
                 (UTC) (F)     (DEG/KT/KT) (MB)    (FT/S)
DEVILS ISLAND    2300   20      10/ 14/ 17 1013.3F
PORT WING        2340   23      30/ 13/ 20 1012.2S
SAXON HARBOR     2330   22      10/ 21/ 26 1011.2R
$$

LMZ867-665-643>646-250100-
LAKE MICHIGAN

STATION/POSITION TIME  TEMP    WIND        PRES    WAVE
                       AIR SEA DIR/SP/G            HT/PER
                 (UTC) (F)     (DEG/KT/KT) (MB)    (FT/S)
NORTHPORT PIER   2340   27      10/  5/  6 1002.4F
SISTER BAY       2305   27        CALM       N/A
KEWAUNEE LAKESHO 2330   28     360/ 10/ 14 1000.2F
SHEBOYGAN LAKESH 2300   31     350/ 15/ 17  999.5F
PORT WASHINGTON  2340   31     320/  8/ 11 1001.4R
MILWAUKEE LAKESH 2330   34     320/  8/ 10   N/A
KENOSHA   LAKESH 2300   35     330/ 13/ 15  999.7
$$

TC  - TEMPERATURE IN CELSIUS
VSB - VISIBILITY IN STATUTE MILES
WCI - WIND CHILL INDEX
HX  - HEAT INDEX





USA.gov is the U.S. government's official web portal to all federal, state and local government web resources and services.